Tiempo cada hora Murzyntsi

Hoy, 29 Octubre, Jueves

Tiempo Temperatura Precipitaciones Viento Presión Humedad
00:00 +9°C° 0 mm 2 mps 748 mmHg 75%
01:00 +9°C° 0 mm 2 mps 748 mmHg 77%
02:00 +9°C° 0 mm 1 mps 749 mmHg 82%
03:00 +9°C° 0 mm 1 mps 748 mmHg 83%
04:00 +8°C° 0 mm 2 mps 748 mmHg 85%
05:00 +8°C° 0 mm 2 mps 748 mmHg 87%
06:00 +8°C° 0 mm 2 mps 747 mmHg 85%
07:00 +9°C° 0 mm 1 mps 747 mmHg 83%
08:00 +10°C° 0 mm 1 mps 748 mmHg 82%
09:00 +10°C° 0.5 mm 1 mps 748 mmHg 81%
10:00 +10°C° 0.5 mm 2 mps 747 mmHg 81%
11:00 +10°C° 0.5 mm 2 mps 747 mmHg 80%
12:00 +12°C° 0.3 mm 1 mps 747 mmHg 79%
13:00 +12°C° 0.3 mm 1 mps 747 mmHg 78%
14:00 +12°C° 0.3 mm 1 mps 746 mmHg 77%
15:00 +12°C° 0 mm 1 mps 746 mmHg 80%
16:00 +11°C° 0 mm 1 mps 746 mmHg 83%
17:00 +11°C° 0 mm 1 mps 746 mmHg 86%
18:00 +9°C° 0 mm 0 mps 746 mmHg 87%
19:00 +9°C° 0 mm 0 mps 746 mmHg 88%
20:00 +9°C° 0 mm 0 mps 746 mmHg 89%
21:00 +9°C° 0 mm 0 mps 746 mmHg 89%
22:00 +9°C° 0 mm 0 mps 746 mmHg 89%
23:00 +9°C° 0 mm 0 mps 745 mmHg 89%

Mañana, 30 Octubre, Viernes

Tiempo Temperatura Precipitaciones Viento Presión Humedad
00:00 +9°C° 0 mm 0 mps 745 mmHg 88%
01:00 +10°C° 0 mm 1 mps 745 mmHg 88%
02:00 +10°C° 0 mm 1 mps 746 mmHg 87%
03:00 +10°C° 0 mm 1 mps 745 mmHg 86%
04:00 +11°C° 0 mm 1 mps 745 mmHg 85%
05:00 +11°C° 0 mm 1 mps 745 mmHg 83%
06:00 +11°C° 0 mm 1 mps 745 mmHg 82%
07:00 +11°C° 0 mm 1 mps 746 mmHg 81%
08:00 +12°C° 0 mm 1 mps 746 mmHg 79%
09:00 +13°C° 0 mm 1 mps 746 mmHg 74%
10:00 +14°C° 0 mm 1 mps 746 mmHg 68%
11:00 +15°C° 0 mm 1 mps 746 mmHg 62%
12:00 +15°C° 0 mm 2 mps 746 mmHg 61%
13:00 +16°C° 0 mm 2 mps 746 mmHg 60%
14:00 +16°C° 0 mm 2 mps 746 mmHg 60%
15:00 +15°C° 0 mm 2 mps 746 mmHg 65%
16:00 +14°C° 0 mm 2 mps 746 mmHg 70%
17:00 +13°C° 0 mm 2 mps 746 mmHg 75%
18:00 +12°C° 0 mm 3 mps 746 mmHg 78%
19:00 +11°C° 0 mm 3 mps 747 mmHg 81%
20:00 +11°C° 0 mm 4 mps 747 mmHg 84%
21:00 +10°C° 0.7 mm 4 mps 747 mmHg 86%
22:00 +10°C° 0.7 mm 4 mps 747 mmHg 87%
23:00 +10°C° 0.7 mm 4 mps 747 mmHg 89%

Pasado mañana, 31 Octubre, Sábado

Tiempo Temperatura Precipitaciones Viento Presión Humedad
00:00 +9°C° 1 mm 3 mps 747 mmHg 88%
01:00 +9°C° 1 mm 3 mps 746 mmHg 88%
02:00 +9°C° 1 mm 3 mps 746 mmHg 88%
03:00 +9°C° 0.1 mm 3 mps 746 mmHg 87%
04:00 +8°C° 0.1 mm 3 mps 746 mmHg 87%
05:00 +8°C° 0.1 mm 3 mps 746 mmHg 86%
06:00 +8°C° 0 mm 3 mps 746 mmHg 85%
07:00 +7°C° 0 mm 3 mps 746 mmHg 84%
08:00 +7°C° 0 mm 3 mps 746 mmHg 84%
09:00 +7°C° 0.1 mm 4 mps 746 mmHg 81%
10:00 +8°C° 0.1 mm 4 mps 746 mmHg 78%
11:00 +8°C° 0.1 mm 4 mps 746 mmHg 75%
12:00 +8°C° 0.4 mm 4 mps 746 mmHg 76%
13:00 +8°C° 0.4 mm 5 mps 746 mmHg 76%
14:00 +8°C° 0.4 mm 5 mps 746 mmHg 77%
15:00 +8°C° 0.4 mm 5 mps 746 mmHg 80%
16:00 +7°C° 0.4 mm 4 mps 746 mmHg 82%
17:00 +7°C° 0.4 mm 4 mps 746 mmHg 84%
18:00 +7°C° 0.1 mm 4 mps 746 mmHg 86%
19:00 +7°C° 0.1 mm 4 mps 746 mmHg 87%
20:00 +7°C° 0.1 mm 5 mps 746 mmHg 88%
21:00 +7°C° 0.5 mm 4 mps 746 mmHg 90%
22:00 +7°C° 0.5 mm 4 mps 746 mmHg 91%
23:00 +7°C° 0.5 mm 4 mps 746 mmHg 93%

1 Noviembre, Domingo

Tiempo Temperatura Precipitaciones Viento Presión Humedad
00:00 +7°C° 0.5 mm 4 mps 746 mmHg 92%
01:00 +7°C° 0.5 mm 4 mps 747 mmHg 90%
02:00 +7°C° 0.5 mm 4 mps 747 mmHg 89%
03:00 +7°C° 0.1 mm 4 mps 747 mmHg 90%
04:00 +7°C° 0.1 mm 4 mps 747 mmHg 91%
05:00 +7°C° 0.1 mm 4 mps 747 mmHg 92%
06:00 +7°C° 0 mm 4 mps 747 mmHg 92%
07:00 +7°C° 0 mm 4 mps 747 mmHg 93%
08:00 +7°C° 0 mm 4 mps 747 mmHg 93%
09:00 +8°C° 0.2 mm 5 mps 747 mmHg 92%
10:00 +8°C° 0.2 mm 5 mps 747 mmHg 91%
11:00 +8°C° 0.2 mm 5 mps 748 mmHg 90%
12:00 +8°C° 0.1 mm 5 mps 747 mmHg 89%
13:00 +8°C° 0.1 mm 6 mps 747 mmHg 89%
14:00 +8°C° 0.1 mm 6 mps 747 mmHg 88%
15:00 +8°C° 0.1 mm 6 mps 747 mmHg 88%
16:00 +8°C° 0.1 mm 6 mps 747 mmHg 88%
17:00 +8°C° 0.1 mm 6 mps 747 mmHg 88%
18:00 +8°C° 0.1 mm 6 mps 748 mmHg 88%
19:00 +8°C° 0.1 mm 6 mps 748 mmHg 88%
20:00 +8°C° 0.1 mm 6 mps 748 mmHg 88%
21:00 +7°C° 0 mm 6 mps 748 mmHg 88%
22:00 +7°C° 0 mm 6 mps 748 mmHg 89%
23:00 +7°C° 0 mm 6 mps 747 mmHg 89%

2 Noviembre, Lunes

Tiempo Temperatura Precipitaciones Viento Presión Humedad
00:00 +7°C° 0.1 mm 6 mps 747 mmHg 89%
01:00 +7°C° 0.1 mm 6 mps 747 mmHg 89%
02:00 +7°C° 0.1 mm 6 mps 747 mmHg 90%
03:00 +7°C° 0.6 mm 6 mps 747 mmHg 91%
04:00 +7°C° 0.6 mm 6 mps 747 mmHg 91%
05:00 +5°C° 0.6 mm 6 mps 747 mmHg 92%
06:00 +6°C° 1.7 mm 5 mps 748 mmHg 93%
07:00 +6°C° 1.7 mm 5 mps 748 mmHg 93%
08:00 +6°C° 1.7 mm 4 mps 748 mmHg 94%
09:00 +7°C° 0.4 mm 4 mps 748 mmHg 93%
10:00 +7°C° 0.4 mm 4 mps 748 mmHg 92%
11:00 +7°C° 0.4 mm 4 mps 748 mmHg 90%
12:00 +8°C° 0 mm 4 mps 748 mmHg 88%
13:00 +8°C° 0 mm 4 mps 748 mmHg 86%
14:00 +10°C° 0 mm 4 mps 748 mmHg 84%
15:00 +10°C° 0 mm 3 mps 748 mmHg 85%
16:00 +9°C° 0 mm 3 mps 748 mmHg 86%
17:00 +9°C° 0 mm 3 mps 748 mmHg 88%
18:00 +8°C° 0 mm 4 mps 748 mmHg 89%
19:00 +7°C° 0 mm 4 mps 748 mmHg 90%
20:00 +7°C° 0 mm 5 mps 748 mmHg 92%
21:00 +7°C° 0.2 mm 5 mps 747 mmHg 91%
22:00 +7°C° 0.2 mm 5 mps 747 mmHg 91%
23:00 +8°C° 0.2 mm 5 mps 747 mmHg 91%

3 Noviembre, Martes

Tiempo Temperatura Precipitaciones Viento Presión Humedad
00:00 +8°C° 0.8 mm 5 mps 747 mmHg 92%
01:00 +8°C° 0.8 mm 5 mps 748 mmHg 92%
02:00 +8°C° 0.8 mm 5 mps 748 mmHg 92%
03:00 +8°C° 0.5 mm 4 mps 748 mmHg 93%
04:00 +8°C° 0.5 mm 4 mps 748 mmHg 93%
05:00 +8°C° 0.5 mm 4 mps 748 mmHg 93%
06:00 +8°C° 0.2 mm 4 mps 749 mmHg 92%
07:00 +8°C° 0.2 mm 5 mps 749 mmHg 91%
08:00 +8°C° 0.2 mm 5 mps 750 mmHg 90%
09:00 +9°C° 0 mm 5 mps 750 mmHg 85%
10:00 +9°C° 0 mm 5 mps 751 mmHg 79%
11:00 +11°C° 0 mm 4 mps 751 mmHg 74%
12:00 +11°C° 0.1 mm 4 mps 751 mmHg 73%
13:00 +12°C° 0.1 mm 4 mps 752 mmHg 73%
14:00 +12°C° 0.1 mm 3 mps 752 mmHg 72%
15:00 +12°C° 0.1 mm 3 mps 752 mmHg 76%
16:00 +11°C° 0.1 mm 3 mps 752 mmHg 80%
17:00 +10°C° 0.1 mm 2 mps 752 mmHg 83%
18:00 +10°C° 0 mm 2 mps 752 mmHg 86%
19:00 +10°C° 0 mm 2 mps 753 mmHg 88%
20:00 +9°C° 0 mm 2 mps 753 mmHg 91%
21:00 +9°C° 0 mm 2 mps 753 mmHg 91%
22:00 +9°C° 0 mm 2 mps 753 mmHg 91%
23:00 +9°C° 0 mm 2 mps 753 mmHg 92%
Mostrar más

Necesitamos Su Consentimiento

Meteoprog y nuestros Proveedores de Servicios pueden almacenar y acceder a sus datos personales como cookies, identificadores de dispositivo u otras tecnologías similares de su dispositivo y procesar dichos datos para personalizar contenido y anuncios, además de ofrecer funciones de redes sociales y analizar el tráfico.

  • Almacenar y/o acceder a información en su dispositivo

    Se puede almacenar o acceder a cookies, identificadores de dispositivo u otra información de su dispositivo para los fines anteriormente indicados.

  • Anuncios y contenido personalizados, medición de anuncios y contenido, percepciones del público, y desarrollo de productos

    Los anuncios y el contenido pueden personalizarse en base a su perfil. Se pueden añadir más datos para personalizar mejor los anuncios y contenidos. Se puede medir el rendimiento de los anuncios y contenidos. Se puede obtener la percepción sobre el público que ha visto los anuncios y contenidos. Dichos datos pueden usarse para desarrollar o mejorar la experiencia del usuario, sistemas y software.

Al hacer clic en ‘Estoy De Acuerdo’ usted permitirá el uso de las cookies, identificadores de dispositivo, balizas web u otras tecnologías similares indicadas. Su configuración puede cambiarse desde el navegador de su dispositivo.

Para ciertos fines, los intereses legítimos pueden ser considerados por encima del consentimiento. Puede leer más sobre ello en nuestra Política de Privacidad y Cookies.